Skip Page Navigation
NASA JPL Caltech
NASA Logo - Jet Propulsion Laboratory + View the NASA Portal
+ Center for Near-Earth Object Studies
JPL Home Earth Solar System Stars & Galaxies Technology
JPL Solar System Dynamics
BODIES ORBITS EPHEMERIDES TOOLS PHYSICAL DATA DISCOVERY FAQ SITE MAP
IMPORTANT: The SSD Announcement email list is now available. Major changes are coming in the near future, including possible hostname and/or URL changes. To be notified of such changes, subscribe to this email list.

Please visit this page for more details.


JPL Small-Body Database Browser
Search: [ help ]  
423785 (2006 FG3)
Classification: Main-belt Asteroid          SPK-ID: 2423785
Ephemeris | Orbit Diagram | Orbital Elements | Mission Design | Physical Parameters | Discovery Circumstances | Close-Approach Data ]

[ show orbit diagram ]
Orbital Elements at Epoch 2459000.5 (2020-May-31.0) TDB
Reference: JPL 18 (heliocentric ecliptic J2000)
 Element Value Uncertainty (1-sigma)   Units 
e .2139382876749764 8.4371e-08  
a 2.78982032318803 5.2643e-08 au
q 2.192970940324334 2.6746e-07 au
i 12.79717565283678 8.2725e-06 deg
node 188.6459136021391 2.6125e-05 deg
peri 286.817780744703 4.5874e-05 deg
M 70.65360456364766 2.5372e-05 deg
tp 2458666.462980509926
(2019-Jul-01.96298051)
0.00012078 TDB
period 1702.012625670039
4.66
4.8174e-05
1.319e-07
d
yr
n .211514294647654 5.9868e-09 deg/d
Q 3.386669706051727 6.3905e-08 au
  Orbit Determination Parameters
   # obs. used (total)      141  
   data-arc span      4694 days (12.85 yr)  
   first obs. used      2006-02-28  
   last obs. used      2019-01-05  
   planetary ephem.      DE431  
   SB-pert. ephem.      SB431-N16  
   condition code      0  
   norm. resid. RMS      .64678  
   source      ORB  
   producer      Otto Matic  
   solution date      2019-Jul-14 12:57:22  

Additional Information
 Earth MOID = 1.24792 au 
 Jupiter MOID = 1.88671 au 
 T_jup = 3.260 
[ show covariance matrix ]

Ephemeris | Orbit Diagram | Orbital Elements | Mission Design | Physical Parameters | Discovery Circumstances | Close-Approach Data ]

Physical Parameter Table
Parameter Symbol Value Units Sigma Reference Notes
absolute magnitude H 17.0   n/a MPO456024  
diameter diameter 2.009 km 0.500 urn:nasa:pds:neowise_diameters_albedos::2.0[mainbelt] (http://adsabs.harvard.edu/abs/2011ApJ...741...68M)  
geometric albedo albedo 0.058   0.029 urn:nasa:pds:neowise_diameters_albedos::2.0[mainbelt] (http://adsabs.harvard.edu/abs/2011ApJ...741...68M)  

423785 (2006 FG3)          Discovered 2006-Mar-23 by Spacewatch at Kitt Peak
Reference: Last Updated: 2015-02-04

[ show close-approach data ]
Ephemeris | Orbit Diagram | Orbital Elements | Mission Design | Physical Parameters | Discovery Circumstances | Close-Approach Data ]
ABOUT SSD CREDITS/AWARDS PRIVACY/COPYRIGHT GLOSSARY LINKS
FirstGov 2020-Mar-28 22:24 UT
(server date/time)  
NASA Home Page
Site Manager:   Ryan S. Park
Webmaster  Alan B. Chamberlin